Jacksonville, IL

9:49 AM CST on February 06, 2016 (GMT -0600)
Jacksonville Municipal

Weather History for KIJX - May, 2014

Change the Weather History Date:

Friday, May 9, 2014

  Actual Average (KSPI) Record (KSPI)
Temperature  
Mean Temperature 65 °F 62 °F  
Max Temperature 76 °F 73 °F 93 °F (1963)
Min Temperature 55 °F 50 °F 32 °F (1966)
Degree Days  
Heating Degree Days 0 5  
Month to date heating degree days 55  
Since 1 July heating degree days 5400  
Cooling Degree Days 0 2  
Month to date cooling degree days 12  
Year to date cooling degree days 32  
Growing Degree Days 15 (Base 50)    
Moisture  
Dew Point 56 °F    
Average Humidity 67    
Maximum Humidity 94    
Minimum Humidity 37    
Precipitation  
Precipitation 0.32 in 0.13 in 2.26 in (1918)
Month to date precipitation 1.18  
Year to date precipitation 10.95  
Snow  
Snow 0.00 in 0.00 in T in (1966)
Month to date snowfall 0.0  
Since 1 July snowfall 20.9  
Snow Depth -    
Sea Level Pressure  
Sea Level Pressure 29.82 in    
Wind  
Wind Speed 11 mph (SW)    
Max Wind Speed 18 mph    
Max Gust Speed 26 mph    
Visibility 10 miles    
Events Rain    
T = Trace of Precipitation, MM = Missing Value Source: NWS Daily Summary

Daily Weather History Graph

Daily Weather History Graph

Search for Another Location

Airport or City:

Trip Planner

Search our weather history database for the weather conditions in past years. The results will help you decide how hot, cold, wet, or windy it might be!

Date:

Astronomy

May. 09, 2014 Rise Set
Actual Time 5:52 AM CDT 8:03 PM CDT
Civil Twilight 5:22 AM CDT 8:33 PM CDT
Nautical Twilight 4:45 AM CDT 9:10 PM CDT
Astronomical Twilight 4:05 AM CDT 9:50 PM CDT
Moon 3:01 PM CDT (5/9) 2:53 AM CDT (5/9)
Length of Visible Light 15h 10m
Length of Day
14h 10m
Waxing Gibbous, 74% of the Moon is Illuminated
May 9
Waxing Gibbous
May 14
Full
May 21
Last Quarter
May 28
New
Jun 5
First Quarter

Hourly Weather History & Observations

Time (CDT) Temp. Dew Point Humidity Pressure Visibility Wind Dir Wind Speed Gust Speed Precip Events Conditions
12:15 AM 68.0 °F 63.9 °F 87% 29.82 in 10.0 mi South 10.4 mph - N/A   Mostly Cloudy
12:35 AM 67.6 °F 63.7 °F 87% 29.82 in 10.0 mi South 12.7 mph 16.1 mph N/A   Mostly Cloudy
12:55 AM 68.0 °F 63.7 °F 86% 29.81 in 10.0 mi South 15.0 mph 18.4 mph N/A   Overcast
1:15 AM 68.0 °F 63.5 °F 85% 29.82 in 10.0 mi South 10.4 mph - N/A   Overcast
1:35 AM 68.0 °F 63.5 °F 85% 29.80 in 10.0 mi SSE 13.8 mph - N/A   Overcast
1:55 AM 68.0 °F 63.5 °F 85% 29.80 in 10.0 mi South 11.5 mph - N/A   Overcast
2:15 AM 68.2 °F 63.1 °F 84% 29.80 in 10.0 mi South 16.1 mph 21.9 mph N/A   Overcast
2:35 AM 68.0 °F 63.3 °F 85% 29.79 in 10.0 mi South 13.8 mph - N/A   Overcast
2:55 AM 67.1 °F 63.9 °F 89% 29.78 in 10.0 mi SSE 10.4 mph - N/A   Light Drizzle
3:15 AM 67.1 °F 63.7 °F 89% 29.77 in 10.0 mi South 10.4 mph - N/A   Mostly Cloudy
3:35 AM 67.1 °F 63.9 °F 89% 29.76 in 10.0 mi South 11.5 mph 16.1 mph N/A   Light Drizzle
3:55 AM 67.1 °F 63.9 °F 89% 29.76 in 10.0 mi South 13.8 mph 17.3 mph N/A   Scattered Clouds
4:15 AM 67.3 °F 63.9 °F 89% 29.76 in 10.0 mi SSW 15.0 mph - N/A   Mostly Cloudy
4:35 AM 67.3 °F 63.9 °F 89% 29.76 in 10.0 mi SSW 10.4 mph - N/A Rain Light Rain
4:55 AM 66.2 °F 64.4 °F 94% 29.75 in 10.0 mi SSW 12.7 mph - N/A   Scattered Clouds
5:15 AM 66.6 °F 63.9 °F 91% 29.75 in 10.0 mi SSW 11.5 mph - N/A   Scattered Clouds
5:35 AM 66.4 °F 63.5 °F 90% 29.75 in 10.0 mi SSW 10.4 mph 19.6 mph N/A   Mostly Cloudy
5:55 AM 65.8 °F 62.6 °F 89% 29.75 in 10.0 mi SSW 10.4 mph - N/A   Mostly Cloudy
6:15 AM 65.8 °F 62.2 °F 88% 29.77 in 10.0 mi SSW 5.8 mph - N/A   Mostly Cloudy
6:35 AM 65.7 °F 62.1 °F 88% 29.79 in 10.0 mi SSW 9.2 mph - N/A   Mostly Cloudy
6:55 AM 65.7 °F 60.8 °F 84% 29.78 in 10.0 mi SSW 9.2 mph - N/A   Scattered Clouds
7:15 AM 65.7 °F 59.9 °F 82% 29.78 in 10.0 mi South 6.9 mph - N/A   Clear
7:35 AM 65.8 °F 60.4 °F 83% 29.79 in 10.0 mi SW 9.2 mph - N/A   Clear
7:55 AM 65.8 °F 60.1 °F 82% 29.80 in 10.0 mi SW 11.5 mph - N/A   Clear
8:15 AM 66.2 °F 60.6 °F 82% 29.81 in 10.0 mi SW 9.2 mph - N/A   Mostly Cloudy
8:35 AM 66.7 °F 61.0 °F 82% 29.82 in 10.0 mi WSW 12.7 mph 16.1 mph N/A   Overcast
8:55 AM 68.0 °F 62.1 °F 81% 29.82 in 10.0 mi WSW 16.1 mph - N/A   Mostly Cloudy
9:15 AM 68.9 °F 62.2 °F 79% 29.82 in 10.0 mi WSW 11.5 mph - N/A   Mostly Cloudy
9:35 AM 69.1 °F 60.4 °F 74% 29.82 in 10.0 mi WSW 12.7 mph 17.3 mph N/A   Scattered Clouds
9:55 AM 68.2 °F 60.8 °F 77% 29.82 in 10.0 mi West 13.8 mph - N/A   Scattered Clouds
10:15 AM 69.1 °F 59.4 °F 71% 29.83 in 10.0 mi WSW 11.5 mph 18.4 mph N/A   Scattered Clouds
10:35 AM 69.6 °F 58.8 °F 68% 29.82 in 10.0 mi West 12.7 mph - N/A   Scattered Clouds
10:55 AM 69.8 °F 59.0 °F 68% 29.81 in 10.0 mi WSW 12.7 mph - N/A   Clear
11:15 AM 70.7 °F 58.1 °F 64% 29.82 in 10.0 mi WSW 18.4 mph 26.5 mph N/A   Clear
11:35 AM 70.7 °F 57.6 °F 63% 29.83 in 10.0 mi WSW 18.4 mph 23.0 mph N/A   Clear
11:55 AM 71.2 °F 57.2 °F 61% 29.83 in 10.0 mi WSW 15.0 mph - N/A   Clear
12:15 PM 72.1 °F 55.6 °F 56% 29.83 in 10.0 mi WSW 13.8 mph - N/A   Clear
12:35 PM 72.7 °F 54.1 °F 52% 29.83 in 10.0 mi SW 16.1 mph 23.0 mph N/A   Clear
12:55 PM 72.9 °F 53.8 °F 51% 29.83 in 10.0 mi SW 16.1 mph 21.9 mph N/A   Clear
1:15 PM 72.9 °F 52.3 °F 48% 29.82 in 10.0 mi WSW 10.4 mph 25.3 mph N/A   Clear
1:35 PM 73.4 °F 52.5 °F 48% 29.82 in 10.0 mi WSW 12.7 mph 25.3 mph N/A   Clear
1:55 PM 73.8 °F 52.3 °F 47% 29.82 in 10.0 mi WSW 16.1 mph 23.0 mph N/A   Clear
2:15 PM 74.3 °F 52.7 °F 47% 29.82 in 10.0 mi WSW 15.0 mph 23.0 mph N/A   Clear
2:35 PM 74.7 °F 52.0 °F 45% 29.82 in 10.0 mi SW 18.4 mph 24.2 mph N/A   Clear
2:55 PM 74.8 °F 50.9 °F 43% 29.82 in 10.0 mi WSW 15.0 mph 23.0 mph N/A   Clear
3:15 PM 75.2 °F 49.6 °F 41% 29.82 in 10.0 mi WSW 17.3 mph 25.3 mph N/A   Clear
3:35 PM 75.2 °F 48.6 °F 39% 29.82 in 10.0 mi WSW 16.1 mph 21.9 mph N/A   Scattered Clouds
3:55 PM 75.6 °F 47.7 °F 37% 29.81 in 10.0 mi West 17.3 mph 24.2 mph N/A   Clear
4:15 PM 75.2 °F 48.7 °F 39% 29.80 in 10.0 mi WSW 12.7 mph 21.9 mph N/A   Clear
4:35 PM 75.6 °F 47.8 °F 37% 29.80 in 10.0 mi WSW 12.7 mph 19.6 mph N/A   Clear
4:55 PM 75.2 °F 48.2 °F 38% 29.80 in 10.0 mi West 11.5 mph 19.6 mph N/A   Clear
5:15 PM 75.2 °F 49.3 °F 40% 29.81 in 10.0 mi WSW 11.5 mph - N/A   Clear
5:35 PM 74.8 °F 48.4 °F 39% 29.81 in 10.0 mi West 15.0 mph 25.3 mph N/A   Clear
5:55 PM 74.3 °F 47.5 °F 39% 29.82 in 10.0 mi West 15.0 mph 20.7 mph N/A   Clear
6:15 PM 73.9 °F 47.3 °F 39% 29.82 in 10.0 mi WSW 13.8 mph 18.4 mph N/A   Clear
6:35 PM 73.2 °F 46.6 °F 39% 29.83 in 10.0 mi WSW 11.5 mph - N/A   Clear
6:55 PM 72.5 °F 47.5 °F 41% 29.83 in 10.0 mi WSW 8.1 mph - N/A   Clear
7:15 PM 71.6 °F 47.7 °F 43% 29.84 in 10.0 mi West 10.4 mph - N/A   Clear
7:35 PM 70.0 °F 46.8 °F 43% 29.84 in 10.0 mi West 5.8 mph - N/A   Clear
7:55 PM 68.4 °F 47.3 °F 47% 29.84 in 10.0 mi WSW 5.8 mph - N/A   Clear
8:15 PM 67.5 °F 47.3 °F 48% 29.84 in 10.0 mi West 6.9 mph - N/A   Clear
8:35 PM 66.2 °F 47.5 °F 51% 29.85 in 10.0 mi West 4.6 mph - N/A   Clear
8:55 PM 63.1 °F 48.2 °F 58% 29.86 in 10.0 mi West 5.8 mph - N/A   Clear
9:15 PM 61.2 °F 49.3 °F 65% 29.87 in 10.0 mi West 5.8 mph - N/A   Clear
9:35 PM 60.8 °F 48.9 °F 65% 29.88 in 10.0 mi Calm Calm - N/A   Clear
9:55 PM 60.6 °F 48.0 °F 63% 29.90 in 10.0 mi Calm Calm - N/A   Clear
10:15 PM 58.3 °F 50.4 °F 75% 29.90 in 10.0 mi Calm Calm - N/A   Clear
10:35 PM 57.7 °F 48.9 °F 72% 29.90 in 10.0 mi West 3.5 mph - N/A   Clear
10:55 PM 57.9 °F 49.6 °F 74% 29.90 in 10.0 mi Calm Calm - N/A   Clear
11:15 PM 56.7 °F 49.5 °F 77% 29.91 in 10.0 mi West 3.5 mph - N/A   Clear
11:35 PM 55.4 °F 49.1 °F 79% 29.92 in 10.0 mi Calm Calm - N/A   Clear
11:55 PM 55.6 °F 48.4 °F 77% 29.92 in 10.0 mi Calm Calm - N/A   Clear